This demonstration page uses our WeatherBlox Daily Observations layout. Learn more.

Left ArrowRight Arrow

41.55636, -103.73856

Hourly Observations for November 18, 2019

Temp ( °F °C ) Dew Point ( °F °C ) Humidity (%) Winds ( mph kmh ) Pressure ( in mb ) Visibility ( mi km ) Precip ( " mm )
12:58 am 00:58 Mostly Cloudy 51 10.6 25 -3.8 36 36 W 13 20 29.98 1015 10 16.0934 N/A
1:58 am 01:58 Mostly Cloudy 52 11.2 24 -4.2 34 34 WNW 14 22 29.98 1015 10 16.0934 N/A
2:58 am 02:58 Mostly Cloudy 50 9.9 25 -3.7 38 38 W 9 15 29.97 1015 10 16.0934 N/A
3:58 am 03:58 Mostly Cloudy 47 8.4 26 -3.1 45 45 W 6 9 29.92 1013 10 16.0934 N/A
4:58 am 04:58 Mostly Cloudy 53 11.5 27 -3 36 36 NW 14 22 29.85 1011 10 16.0934 N/A
5:58 am 05:58 Mostly Clear 48 9.1 27 -2.6 44 44 WSW 7 11 29.88 1012 10 16.0934 N/A
6:58 am 06:58 Mostly Cloudy 51 10.6 28 -2 42 42 WNW 13 20 29.85 1011 10 16.0934 N/A
7:58 am 07:58 Mostly Cloudy 50 9.8 28 -2.5 42 42 NW 17 28 29.83 1010 10 16.0934 N/A
8:58 am 08:58 Clear 49 9.2 28 -2.3 45 45 NW 20 31 29.85 1011 10 16.0934 N/A
9:58 am 09:58 Clear 46 7.6 29 -1.9 51 51 NW 17 28 29.86 1011 10 16.0934 N/A
10:58 am 10:58 Clear 43 6.1 29 -1.8 57 57 NW 15 24 29.89 1012 10 16.0934 N/A
11:58 am 11:58 Clear 43 6.2 29 -1.6 58 58 NW 18 30 29.93 1014 10 16.0934 N/A
12:58 pm 12:58 Mostly Cloudy 45 7.4 29 -1.4 54 54 WNW 15 24 29.93 1014 10 16.0934 N/A
1:58 pm 13:58 Mostly Cloudy 45 7.1 30 -1.2 56 56 NW 16 26 29.96 1015 10 16.0934 N/A
2:58 pm 14:58 Mostly Cloudy 47 8.3 30 -1 52 52 NW 17 28 29.98 1015 10 16.0934 N/A
3:58 pm 15:58 Partly Cloudy 49 9.4 29 -1.4 47 47 NW 20 31 29.98 1015 10 16.0934 N/A
4:58 pm 16:58 Sunny 55 12.6 28 -2.1 36 36 NW 25 41 29.96 1015 10 16.0934 N/A
5:58 pm 17:58 Sunny 57 14 28 -2.3 33 33 NW 24 39 29.93 1014 10 16.0934 N/A
6:58 pm 18:58 Sunny 58 14.6 27 -2.7 30 30 NNW 24 39 29.91 1013 10 16.0934 N/A
7:58 pm 19:58 Sunny 59 15.1 28 -2.5 30 30 NNW 23 37 29.9 1013 10 16.0934 N/A
8:58 pm 20:58 Sunny 60 15.3 27 -3 28 28 NNW 15 24 29.89 1012 10 16.0934 N/A
9:58 pm 21:58 Sunny 59 15 26 -3.3 28 28 NNW 16 26 29.89 1012 10 16.0934 N/A
10:58 pm 22:58 Sunny 54 12 26 -3.6 34 34 NNW 7 11 29.92 1013 10 16.0934 N/A

Powered by AerisWeather